Temperature
24 21 21 21 22 23 23 23 23 23 24 23 22 22 21 21 21 20 20 20 20 20 20 20 19 19 19 18 18 18 18 17 17 17 16 16 16 16 15 15 15 15 15 15
21 21 23 24 24 24 23 23 22 23 24 23 21 21 21 21 20 20 19 19 19 19 19 19 19 19 18 18 18 17 17 17 17 16 16 16 15 15 15 15 15 15 15 15
22 23 25 25 24 24 23 23 23 23 22 22 21 20 20 20 20 19 19 19 19 19 19 19 18 18 18 17 17 17 17 16 16 16 16 15 15 15 15 15 15 14 14 14
23 24 25 24 24 24 22 23 23 23 21 19 21 19 19 19 18 18 18 18 18 18 18 18 18 18 17 17 17 16 16 16 16 15 15 15 15 15 15 14 14 14 14 14
23 24 24 23 24 24 23 23 22 22 20 19 19 18 18 18 18 17 17 17 18 18 18 18 18 17 17 17 16 16 16 15 15 15 15 15 15 14 14 14 14 14 13 13
23 24 24 24 24 24 22 21 20 18 17 18 19 18 17 17 17 17 17 17 18 18 18 18 17 17 17 16 16 16 15 15 15 15 15 14 14 14 14 14 13 13 13 13
21 22 23 23 22 22 20 18 17 18 17 17 18 18 17 18 18 17 17 17 17 17 17 17 17 17 17 16 16 16 15 15 15 14 14 14 14 14 13 13 13 13 13 13
19 20 22 23 22 21 20 19 17 17 17 17 18 17 17 18 18 18 18 17 17 17 17 17 16 16 17 16 16 15 15 15 14 14 14 14 14 13 13 13 13 13 13 12
19 20 22 23 23 22 20 19 18 16 17 16 17 18 18 17 17 17 17 17 17 16 17 16 16 16 16 16 16 15 15 15 14 14 14 13 13 13 13 13 13 12 12 12
20 19 20 21 22 21 20 19 16 16 16 16 17 17 16 16 16 16 16 16 16 16 16 16 16 16 16 15 15 15 15 14 14 14 13 13 13 13 13 13 12 12 12 12
19 18 18 19 20 20 19 19 17 15 16 16 16 16 17 16 16 15 15 16 16 15 15 15 15 15 15 15 15 15 14 14 14 13 13 13 13 13 12 12 12 12 12 12
17 15 16 18 19 20 20 19 17 16 16 15 15 15 17 16 16 15 15 16 15 15 15 15 15 15 15 14 14 14 14 14 13 13 13 13 13 12 12 12 12 12 12 12
18 15 15 17 17 18 19 19 18 16 14 14 14 15 16 16 15 15 15 15 15 15 15 15 15 14 14 14 14 14 14 13 13 13 13 13 12 12 12 12 12 12 12 12
18 15 15 16 16 17 18 18 18 16 14 15 15 15 15 15 14 14 15 15 15 14 14 14 14 14 14 14 14 13 13 13 13 13 13 12 12 12 12 12 12 12 11 11
16 16 17 17 18 19 18 18 18 17 16 15 15 15 15 14 14 14 14 14 14 14 14 14 14 14 13 13 13 13 13 13 13 12 12 12 12 12 12 12 12 12 11 11
14 16 16 16 18 18 18 18 18 17 17 16 15 15 15 15 15 15 14 14 14 14 14 14 14 13 13 13 13 13 13 12 12 12 12 12 12 12 12 12 12 11 11 11
15 15 15 15 17 17 16 17 17 16 16 15 15 14 14 14 14 14 14 14 14 14 14 13 13 13 13 13 13 12 12 12 12 12 12 12 12 12 12 12 12 11 11 11
14 14 13 14 15 16 16 17 17 16 15 15 14 14 14 14 14 15 15 14 14 14 13 13 13 13 13 12 12 12 12 12 12 12 12 12 12 12 12 12 12 12 11 11
14 14 14 13 15 16 17 17 16 15 15 14 14 14 14 14 14 14 14 14 14 13 13 13 13 12 12 12 12 12 12 12 12 12 12 12 12 12 12 12 12 11 11 11
14 13 13 14 15 15 15 17 17 15 14 15 14 13 13 13 12 12 13 13 13 13 13 13 13 12 12 12 12 12 12 12 12 12 12 12 12 12 12 12 12 12 12 11
14 14 14 13 14 14 15 16 16 14 13 15 15 14 14 13 12 13 13 13 13 13 13 13 13 12 12 12 12 12 12 12 12 12 12 12 12 12 12 12 12 12 12 11
14 13 13 13 13 14 15 15 14 14 15 15 15 15 14 14 14 13 13 13 13 13 13 13 12 12 12 12 12 12 12 12 12 12 12 12 12 12 12 12 12 12 12 11
13 13 12 13 13 14 16 15 16 16 15 15 15 14 14 14 13 13 13 13 13 13 13 13 12 12 12 12 12 12 12 12 12 12 12 12 12 12 12 12 12 12 12 11
13 14 13 13 14 15 16 16 16 16 15 15 15 14 14 14 13 13 13 13 13 13 13 13 12 12 12 12 12 12 12 12 12 12 12 12 12 12 12 12 12 12 12 12
13 13 12 12 13 14 15 15 15 15 15 15 14 14 14 14 13 13 13 13 13 13 13 13 12 12 12 12 12 12 12 12 12 12 12 12 12 12 12 12 12 12 12 12
13 13 12 12 13 13 14 15 15 15 15 14 14 14 14 14 13 13 13 13 13 13 13 13 13 12 12 12 12 12 12 12 12 12 12 12 12 12 12 12 12 12 12 12
Wind_Speed
3 3 3 7 7 6 4 3 5 5 3 2 1 1 3 2 5 5 4 4 3 4 3 4 4 5 5 4 4 5 4 3 3 2 1 1 1 1 1 1 1 2 2 1
5 3 8 6 3 2 2 3 4 5 4 2 2 2 1 2 4 5 4 4 3 3 3 4 4 4 4 4 3 3 3 3 3 2 2 2 1 1 1 1 0 1 1 1
2 6 5 3 4 3 3 2 3 3 4 5 4 4 4 4 7 8 6 5 5 5 3 2 3 4 3 3 2 2 2 2 2 2 2 2 2 1 1 1 1 1 1 1
2 5 4 5 4 3 4 4 3 3 4 3 1 1 3 3 6 5 5 5 4 4 4 3 3 4 3 2 2 1 2 1 1 2 3 3 2 2 3 2 1 2 1 1
4 4 3 4 4 3 3 4 3 2 2 3 5 2 3 3 3 2 2 2 2 3 4 3 2 3 3 3 2 1 2 1 0 1 2 2 1 2 2 1 1 1 2 1
4 3 3 2 4 3 3 7 7 6 5 3 3 1 3 2 2 1 1 1 2 2 2 2 2 2 3 3 3 2 2 0 1 1 1 2 2 2 1 1 1 2 1 1
8 7 5 4 7 8 8 7 6 7 5 3 3 2 2 2 1 2 2 1 1 2 3 2 1 2 3 3 3 2 2 1 1 0 1 2 2 2 2 2 2 2 1 1
5 7 6 5 2 3 3 5 4 2 3 4 4 1 3 1 1 2 2 2 2 2 2 2 1 2 4 3 3 3 2 1 1 1 2 2 2 1 2 2 2 2 3 3
2 5 6 6 4 1 3 2 4 5 0 1 3 2 2 4 5 5 4 3 2 1 1 1 1 1 2 3 3 3 2 1 1 1 2 1 2 2 2 2 2 2 2 2
2 4 7 7 6 6 3 2 5 4 1 2 4 2 3 5 5 5 4 3 3 3 1 1 0 0 1 2 2 1 1 1 1 1 1 1 2 2 2 2 2 2 2 1
4 2 7 7 4 3 5 4 4 2 3 3 2 4 2 1 3 3 3 1 1 2 2 1 1 0 0 1 1 1 0 0 1 1 1 1 1 2 1 2 2 2 2 2
3 3 3 6 6 2 3 1 3 1 2 2 2 4 3 2 2 2 3 2 2 2 1 1 1 2 2 1 0 0 0 1 2 1 1 1 2 2 2 2 2 1 2 2
3 4 4 8 8 8 6 6 3 2 2 1 2 4 4 4 4 4 3 2 1 1 2 2 2 2 2 2 1 1 1 2 2 1 1 1 2 2 2 3 2 1 1 2
3 3 3 3 6 5 6 7 6 3 2 0 2 4 5 5 4 4 3 2 1 1 1 1 1 2 2 1 2 2 2 2 1 1 1 2 3 3 3 2 2 1 1 1
4 1 2 5 6 4 5 7 5 3 2 3 2 2 4 3 2 2 2 2 3 2 2 2 1 2 2 2 2 2 2 2 1 1 1 3 3 2 2 1 1 1 1 2
3 1 3 5 4 4 6 8 6 4 2 3 1 2 3 3 2 2 3 3 2 3 2 2 2 2 1 1 2 3 3 2 2 1 2 2 2 1 1 1 1 1 1 2
1 1 2 4 7 4 4 5 4 3 2 2 1 3 4 4 3 2 2 2 2 2 2 2 2 2 2 1 1 2 3 2 1 1 2 2 1 1 1 1 1 1 1 1
3 1 1 2 5 2 3 3 5 3 4 3 2 3 3 3 3 2 1 2 2 3 2 2 2 1 2 1 2 2 2 1 1 1 2 2 1 1 1 0 1 1 1 1
5 4 1 1 1 4 2 5 4 1 2 3 4 5 6 5 4 4 3 3 2 2 2 2 1 1 1 1 2 2 3 2 2 2 2 2 1 1 1 1 2 2 1 1
4 4 3 1 1 3 3 7 5 3 2 5 4 4 5 5 5 5 5 4 3 3 2 2 1 1 1 2 1 2 3 2 3 3 3 2 2 1 2 2 2 1 1 1
4 3 1 1 2 3 3 6 4 3 5 6 4 3 2 2 4 5 5 3 3 3 2 1 1 1 2 2 1 2 2 3 3 3 2 2 2 1 2 1 1 1 1 1
1 0 1 1 1 4 4 4 1 5 5 4 3 2 2 3 3 2 3 3 3 3 3 1 1 2 3 1 1 1 3 4 3 2 2 2 2 1 1 1 1 1 1 1
1 3 4 4 5 5 3 2 4 4 3 4 3 3 2 2 3 3 3 4 3 3 2 1 1 2 3 2 1 2 4 4 2 2 2 3 2 2 1 1 1 1 1 1
3 1 1 1 3 4 4 3 4 3 4 4 3 2 1 2 3 3 3 4 4 3 2 2 1 2 3 4 3 3 4 3 1 2 3 3 2 2 2 1 1 1 2 2
4 2 1 3 5 5 5 5 5 5 3 2 2 1 1 1 3 3 3 4 4 3 3 1 2 3 4 4 4 4 3 1 1 2 2 2 2 1 2 2 2 3 4 4
4 4 3 6 6 4 7 7 6 5 4 2 1 1 2 2 3 3 3 3 3 3 2 2 3 3 5 4 5 4 3 1 1 1 2 2 1 2 1 2 4 6 5 6
Wind_Direction
322 64 270 248 221 209 235 281 296 285 288 46 108 270 252 182 131 129 123 109 123 144 148 137 129 115 102 104 115 122 116 132 139 137 144 146 177 207 202 213 187 175 184 172
15 314 258 258 287 323 341 337 312 306 331 46 67 14 5 92 119 121 123 123 117 106 87 101 102 101 107 113 122 125 134 140 147 164 172 164 164 222 217 251 313 259 202 168
200 257 295 349 357 4 356 352 320 301 351 29 62 16 13 38 78 79 80 86 88 99 103 104 94 95 101 112 115 150 153 134 136 135 114 88 70 24 347 311 280 267 250 189
282 289 352 18 0 10 330 322 339 354 25 327 50 304 330 31 60 55 62 74 93 96 93 84 96 100 106 121 113 105 98 91 108 124 135 141 153 200 242 251 255 281 284 270
304 315 21 27 337 5 292 331 4 21 58 27 15 89 304 15 41 350 13 80 111 115 112 112 132 155 138 125 119 110 83 84 104 135 145 142 178 230 251 261 260 278 281 288
317 340 49 16 337 10 17 24 25 34 56 33 327 81 302 302 259 275 314 173 130 109 88 80 81 121 122 126 129 140 144 171 249 160 150 154 188 222 241 266 262 269 284 287
344 347 359 17 11 360 33 54 26 9 10 280 304 76 249 274 261 183 186 170 152 132 101 81 71 120 131 137 134 144 152 193 279 256 206 205 218 214 214 231 239 248 253 257
3 323 334 356 4 309 341 104 133 207 247 284 329 207 249 321 41 50 99 146 141 128 125 133 162 154 148 152 152 149 147 159 266 265 250 232 224 219 227 226 225 233 237 237
9 295 312 331 325 78 20 16 163 144 300 325 298 304 320 13 23 29 33 41 30 63 92 91 120 140 156 158 168 167 160 171 243 259 256 236 238 231 240 241 231 234 245 250
65 301 316 331 10 18 89 106 66 78 90 303 302 303 295 324 343 356 9 17 6 18 42 78 97 121 190 185 169 124 147 198 260 276 260 241 233 244 253 246 237 235 245 253
53 39 321 350 5 353 12 24 70 103 160 164 264 281 292 272 322 333 333 0 17 23 25 33 0 287 269 157 134 130 154 60 313 289 260 238 262 269 268 250 237 240 244 252
27 85 316 297 292 349 70 57 113 111 273 187 193 267 312 11 15 14 360 17 20 12 18 39 52 35 19 24 151 161 278 288 277 270 290 261 268 270 272 271 267 260 262 268
39 71 3 343 347 4 6 356 6 137 126 146 174 266 335 7 24 30 31 25 13 354 7 29 35 31 16 357 332 283 241 255 255 270 271 285 284 276 259 259 267 280 281 293
73 86 146 217 266 307 329 344 352 61 92 251 227 268 322 342 358 355 6 352 341 339 353 12 13 2 343 341 343 310 287 260 248 243 249 267 266 264 252 253 260 269 281 294
70 48 280 268 277 313 342 346 9 30 175 183 241 270 307 307 299 309 333 343 354 348 332 320 335 341 339 348 338 328 296 285 269 254 253 265 265 265 262 262 258 271 291 284
48 24 335 320 316 354 4 8 13 10 39 117 92 325 309 314 347 353 340 340 332 331 320 311 317 313 298 319 334 337 317 295 285 266 271 279 291 298 298 271 281 307 305 293
346 74 13 306 313 1 7 355 16 31 34 111 113 279 321 347 341 306 319 336 328 342 335 307 294 291 280 275 317 324 302 294 302 285 291 283 283 304 286 269 339 344 305 299
173 140 138 302 2 1 255 351 36 60 48 56 50 334 334 329 306 293 29 30 347 344 340 324 298 301 311 330 355 338 329 305 278 276 290 287 285 258 265 285 272 257 250 281
167 154 135 106 305 280 317 352 348 2 11 16 18 359 352 352 9 352 354 13 356 333 315 310 277 250 335 345 344 6 351 356 352 315 304 291 270 236 248 257 263 258 254 285
52 91 111 109 248 264 279 320 328 69 341 333 357 347 339 356 354 316 325 346 359 349 339 338 356 40 22 319 343 22 353 358 332 310 296 289 275 238 229 243 260 265 245 266
17 16 48 205 240 265 297 331 19 44 272 291 294 287 299 296 262 271 302 324 335 332 323 352 50 9 287 296 5 8 341 310 293 302 296 288 290 252 223 235 260 280 300 331
147 137 266 135 265 269 314 19 69 249 261 272 274 271 277 287 285 296 313 318 321 317 315 333 17 313 294 295 4 338 305 293 298 312 310 294 295 262 227 204 280 301 330 341
177 193 204 195 217 251 265 238 245 234 260 271 259 272 271 293 294 301 300 306 299 284 285 308 314 315 302 293 260 269 286 291 298 311 303 298 302 293 274 214 247 294 309 264
303 339 75 305 280 296 294 301 306 283 267 263 255 262 273 280 286 304 301 306 308 289 279 294 311 310 296 293 279 256 273 282 290 293 298 300 314 311 310 297 249 226 242 250
263 313 322 281 290 316 308 307 306 302 304 282 268 284 258 308 305 295 287 294 290 283 279 277 269 276 283 290 289 282 283 287 279 289 302 310 319 299 303 301 270 249 249 230
234 208 210 244 246 239 268 274 295 305 296 266 264 314 300 290 278 284 287 287 283 276 284 295 284 278 281 287 287 286 280 252 206 295 306 305 310 305 284 295 314 309 288 291
Height
1497 1504 1508 1503 1500 1500 1500 1503 1504 1497 1489 1493 1496 1497 1494 1491 1492 1493 1494 1494 1495 1495 1496 1496 1496 1496 1496 1497 1497 1497 1498 1499 1499 1499 1499 1500 1499 1500 1500 1500 1500 1500 1499 1498
1504 1507 1498 1494 1493 1495 1498 1503 1503 1496 1489 1493 1498 1499 1495 1493 1494 1494 1495 1495 1496 1496 1496 1496 1496 1497 1496 1497 1497 1497 1497 1497 1498 1498 1498 1499 1499 1499 1499 1498 1498 1497 1497 1496
1507 1501 1492 1492 1494 1497 1499 1502 1501 1499 1494 1493 1498 1505 1500 1497 1497 1497 1497 1497 1497 1497 1497 1497 1497 1497 1498 1498 1498 1497 1497 1497 1497 1497 1497 1497 1497 1497 1497 1496 1496 1495 1494 1493
1501 1494 1493 1495 1496 1496 1505 1495 1494 1494 1503 1511 1505 1521 1510 1503 1501 1500 1500 1499 1499 1498 1498 1498 1498 1498 1498 1498 1497 1497 1496 1497 1496 1496 1495 1494 1495 1495 1494 1494 1493 1493 1492 1491
1503 1496 1496 1499 1497 1494 1497 1492 1493 1495 1503 1512 1511 1520 1519 1507 1508 1504 1502 1501 1501 1500 1499 1499 1499 1499 1498 1497 1497 1496 1497 1497 1496 1496 1495 1494 1494 1494 1493 1492 1491 1490 1490 1489
1499 1494 1495 1497 1494 1493 1494 1496 1498 1505 1513 1525 1518 1521 1524 1514 1509 1506 1503 1501 1501 1500 1499 1500 1499 1499 1499 1498 1497 1497 1497 1496 1496 1495 1494 1493 1492 1491 1491 1490 1489 1488 1488 1487
1508 1501 1497 1495 1498 1496 1499 1514 1529 1532 1536 1532 1517 1520 1522 1509 1505 1504 1503 1502 1502 1501 1500 1500 1499 1499 1498 1498 1497 1497 1496 1495 1494 1493 1493 1492 1491 1490 1489 1488 1487 1486 1485 1484
1524 1520 1504 1499 1502 1505 1504 1512 1533 1542 1541 1534 1520 1522 1517 1507 1505 1503 1502 1502 1502 1500 1500 1499 1500 1499 1498 1497 1496 1495 1494 1493 1493 1492 1491 1491 1490 1488 1487 1486 1485 1484 1483 1482
1525 1521 1504 1500 1498 1500 1507 1513 1513 1528 1531 1536 1527 1518 1512 1507 1505 1503 1502 1501 1501 1500 1500 1500 1499 1498 1498 1497 1496 1495 1493 1492 1491 1490 1489 1488 1488 1487 1485 1484 1484 1482 1481 1480
1518 1523 1511 1504 1500 1501 1504 1508 1519 1529 1540 1542 1530 1525 1524 1513 1509 1505 1503 1502 1501 1500 1500 1500 1499 1498 1497 1496 1495 1494 1492 1491 1490 1489 1487 1487 1486 1485 1484 1483 1482 1480 1479 1478
1517 1526 1521 1512 1511 1512 1510 1513 1519 1528 1530 1539 1541 1534 1513 1512 1508 1506 1505 1503 1502 1501 1500 1500 1499 1498 1497 1495 1494 1493 1491 1490 1489 1487 1486 1485 1484 1484 1482 1481 1480 1479 1477 1477
1520 1528 1531 1520 1509 1505 1508 1511 1518 1530 1531 1531 1537 1534 1509 1508 1506 1505 1505 1504 1503 1502 1500 1499 1498 1497 1495 1494 1493 1491 1490 1488 1487 1486 1484 1484 1483 1482 1481 1480 1479 1477 1476 1475
1521 1531 1540 1531 1524 1513 1512 1510 1512 1520 1528 1533 1537 1530 1510 1508 1506 1505 1505 1504 1503 1501 1499 1498 1497 1495 1494 1492 1491 1490 1488 1487 1486 1485 1483 1482 1481 1480 1479 1478 1477 1476 1475 1473
1520 1531 1539 1542 1535 1523 1520 1515 1512 1518 1530 1530 1527 1522 1514 1511 1508 1506 1505 1503 1502 1500 1498 1496 1495 1493 1492 1491 1489 1488 1487 1486 1484 1483 1482 1481 1480 1479 1478 1477 1476 1475 1474 1472
1523 1531 1528 1526 1520 1518 1518 1515 1513 1515 1518 1524 1522 1519 1515 1511 1508 1506 1504 1502 1500 1498 1497 1495 1494 1493 1491 1489 1488 1486 1485 1484 1483 1481 1480 1480 1479 1477 1476 1476 1475 1474 1473 1471
1525 1530 1528 1526 1517 1517 1518 1515 1514 1514 1514 1517 1517 1517 1512 1509 1507 1505 1503 1501 1499 1497 1496 1494 1493 1492 1490 1488 1486 1485 1483 1483 1481 1480 1479 1478 1477 1476 1475 1475 1474 1473 1472 1471
1528 1531 1534 1535 1523 1520 1527 1521 1518 1518 1516 1516 1519 1518 1512 1509 1507 1504 1502 1500 1498 1497 1495 1494 1492 1490 1488 1486 1484 1483 1482 1481 1480 1479 1478 1477 1476 1475 1475 1474 1474 1472 1471 1470
1527 1531 1537 1538 1533 1537 1530 1517 1516 1517 1517 1515 1515 1513 1511 1509 1506 1504 1502 1500 1498 1496 1494 1493 1491 1489 1487 1485 1483 1482 1480 1480 1478 1478 1477 1476 1476 1475 1474 1473 1473 1472 1471 1469
1521 1528 1535 1540 1539 1533 1524 1519 1517 1519 1520 1516 1515 1513 1511 1508 1505 1503 1502 1500 1498 1496 1494 1492 1490 1489 1487 1485 1483 1481 1480 1479 1478 1477 1476 1475 1475 1474 1473 1473 1472 1471 1470 1469
1521 1525 1534 1538 1539 1539 1530 1518 1514 1516 1522 1515 1514 1513 1511 1509 1509 1505 1502 1499 1497 1495 1493 1491 1489 1488 1486 1485 1483 1480 1479 1477 1477 1476 1476 1475 1474 1473 1473 1472 1472 1471 1470 1468
1532 1532 1535 1539 1539 1532 1524 1518 1516 1526 1525 1515 1513 1511 1510 1509 1508 1505 1501 1499 1496 1494 1492 1491 1489 1487 1486 1484 1482 1480 1479 1478 1477 1476 1475 1474 1473 1473 1472 1472 1471 1470 1469 1468
1535 1538 1538 1539 1541 1537 1520 1519 1522 1522 1516 1513 1511 1509 1508 1506 1504 1502 1500 1498 1495 1493 1491 1490 1488 1487 1485 1484 1482 1480 1479 1478 1477 1476 1475 1474 1473 1472 1472 1471 1471 1470 1469 1467
1532 1533 1533 1533 1533 1524 1519 1519 1517 1516 1514 1512 1510 1508 1506 1504 1502 1500 1498 1496 1494 1492 1491 1489 1488 1486 1485 1483 1481 1480 1479 1478 1477 1475 1474 1473 1472 1472 1471 1471 1470 1469 1468 1467
1528 1526 1527 1527 1523 1520 1518 1517 1515 1514 1512 1510 1508 1506 1505 1503 1501 1499 1497 1495 1493 1491 1490 1488 1487 1485 1484 1482 1481 1480 1479 1478 1476 1475 1474 1473 1472 1471 1471 1470 1470 1469 1467 1466
1528 1526 1527 1526 1522 1519 1516 1515 1513 1511 1509 1508 1506 1504 1503 1501 1499 1498 1495 1494 1492 1490 1489 1487 1486 1484 1483 1481 1480 1479 1478 1477 1476 1475 1473 1473 1472 1471 1470 1470 1469 1468 1467 1466
1524 1525 1526 1525 1520 1518 1515 1512 1511 1509 1507 1506 1504 1502 1501 1500 1498 1496 1494 1492 1491 1489 1488 1486 1485 1483 1482 1481 1480 1479 1478 1477 1475 1474 1473 1472 1472 1471 1470 1469 1469 1468 1467 1466